Location: Baumgarten
(49.0970°N, 12.7493°E)
Time: 01:29:28
(UTC+00:00)

Cosmos 1328 - Pass Details

Date: 05 July 2020
Orbit: 538 x 546 km, 82.5° (Epoch: 04 August)

Event Time Altitude Azimuth Distance (km) Brightness Sun altitude
Exits shadow 20:01:43 - 175° (S) 2,504 6.7 -6.5°
Reaches altitude 10° 20:03:26 10° 171° (S) 1,804 6.0 -6.7°
Maximum altitude 20:07:17 52° 95° (E) 681 4.0 -7.1°
Drops below altitude 10° 20:11:10 10° 19° (NNE) 1,816 6.9 -7.5°
Sets 20:13:22 0° 14° (NNE) 2,712 7.9 -7.8°
